Torna al catalogo

STARLINK-31649

AttivoComunicazioniVLEO
NORAD 59390·PAYLOAD·🇺🇸 United States

Lanciato Apr 2, 2024 da Vandenberg Space Force Base

Loading…

Prossimi Passaggi (prossime 24 ore)

TLE

AggiornatoSource: CelesTrak SupGP

Epoca: Sep 14, 2026, 22:18 UTC

1 59390C 24062S   26257.92965278  .00073791  00000+0  21791-2 0  2575
2 59390  53.1573  93.6065 0001125  81.8416  75.2142 15.34369994    13

Traccia STARLINK-31649 in tempo reale con AllMySat

Download on the App Store